Chesapeake, VA

4:15 PM EST on December 09, 2016 (GMT -0500)
Fentress Naval Air Landing Field

Weather History for KNFE - February, 2014

Change the Weather History Date:

Monday, February 17, 2014

  Actual Average (KNTU) Record (KNTU)
Temperature  
Mean Temperature 37 °F -  
Max Temperature 42 °F 50 °F 72 °F (2006)
Min Temperature 32 °F 33 °F 21 °F (2007)
Degree Days  
Heating Degree Days 28    
Moisture  
Dew Point 21 °F    
Average Humidity 54    
Maximum Humidity 70    
Minimum Humidity 45    
Precipitation  
Precipitation 0.00 in - - ()
Sea Level Pressure  
Sea Level Pressure 30.36 in    
Wind  
Wind Speed 9 mph (NNE)    
Max Wind Speed 17 mph    
Max Gust Speed 25 mph    
Visibility 10 miles    
Events      
Averages and records for this station are not official NWS values.
T = Trace of Precipitation, MM = Missing Value Source: NWS Daily Summary

Daily Weather History Graph

Daily Weather History Graph

Search for Another Location

Airport or City:

Trip Planner

Search our weather history database for the weather conditions in past years. The results will help you decide how hot, cold, wet, or windy it might be!

Date:

Astronomy

Feb. 17, 2014 Rise Set
Actual Time 6:50 AM EST 5:47 PM EST
Civil Twilight 6:24 AM EST 6:13 PM EST
Nautical Twilight 5:53 AM EST 6:43 PM EST
Astronomical Twilight 5:23 AM EST 7:13 PM EST
Moon 8:33 PM EST (2/17) 7:54 AM EST (2/17)
Length of Visible Light 11h 49m
Length of Day
10h 56m
Waning Gibbous, 93% of the Moon is Illuminated
Feb 17
Waning Gibbous
Feb 22
Last Quarter
Mar 1
New
Mar 8
First Quarter
Mar 16
Full

Hourly Weather History & Observations

Time (EST) Temp. Windchill Dew Point Humidity Pressure Visibility Wind Dir Wind Speed Gust Speed Precip Events Conditions
12:56 AM 37.0 °F 31.6 °F 24.1 °F 59% 30.22 in 10.0 mi North 6.9 mph - N/A   Clear
1:56 AM 37.0 °F 29.3 °F 23.0 °F 57% 30.25 in 10.0 mi North 11.5 mph - N/A   Clear
2:56 AM 36.0 °F 28.0 °F 19.0 °F 50% 30.27 in 10.0 mi North 11.5 mph 21.9 mph N/A   Clear
3:56 AM 36.0 °F 28.5 °F 19.0 °F 50% 30.30 in 10.0 mi North 10.4 mph 21.9 mph N/A   Clear
4:56 AM 35.1 °F 26.9 °F 19.0 °F 52% 30.32 in 10.0 mi North 11.5 mph 20.7 mph N/A   Clear
5:56 AM 35.1 °F 27.4 °F 18.0 °F 50% 30.33 in 10.0 mi NNE 10.4 mph - N/A   Clear
6:56 AM 34.0 °F 25.0 °F 18.0 °F 52% 30.36 in 10.0 mi North 12.7 mph 20.7 mph N/A   Clear
7:56 AM 36.0 °F 27.1 °F 19.0 °F 50% 30.39 in 10.0 mi North 13.8 mph - N/A   Clear
8:56 AM 37.0 °F 27.4 °F 19.0 °F 48% 30.41 in 10.0 mi North 17.3 mph 25.3 mph N/A   Clear
9:56 AM 37.9 °F 29.6 °F 18.0 °F 45% 30.43 in 10.0 mi NNE 13.8 mph 23.0 mph N/A   Clear
10:56 AM 39.9 °F 32.9 °F 19.9 °F 45% 30.44 in 10.0 mi North 11.5 mph - N/A   Clear
11:56 AM 39.9 °F 31.8 °F 19.9 °F 45% 30.43 in 10.0 mi NNE 15.0 mph - N/A   Clear
12:56 PM 41.0 °F 34.7 °F 21.0 °F 45% 30.40 in 10.0 mi NNE 10.4 mph - N/A   Clear
1:56 PM 41.0 °F 37.1 °F 21.9 °F 47% 30.39 in 10.0 mi East 5.8 mph - N/A   Clear
2:56 PM 42.1 °F 36.6 °F 21.9 °F 45% 30.37 in 10.0 mi North 9.2 mph - N/A   Clear
3:56 PM 39.9 °F 33.4 °F 21.9 °F 49% 30.38 in 10.0 mi East 10.4 mph - N/A   Clear
4:56 PM 37.0 °F 30.4 °F 21.0 °F 52% 30.38 in 10.0 mi East 9.2 mph - N/A   Clear
5:56 PM 34.0 °F 28.8 °F 19.9 °F 56% 30.39 in 10.0 mi East 5.8 mph - N/A   Clear
6:56 PM 32.0 °F 28.7 °F 19.9 °F 61% 30.39 in 10.0 mi ESE 3.5 mph - N/A   Clear
7:56 PM 33.1 °F - 19.9 °F 59% 30.39 in 10.0 mi Calm Calm - N/A   Clear
8:56 PM 33.1 °F - 24.1 °F 70% 30.37 in 10.0 mi Calm Calm - N/A   Clear
9:56 PM 34.0 °F - 24.1 °F 67% 30.35 in 10.0 mi Calm Calm - N/A   Clear
10:56 PM 34.0 °F - 25.0 °F 70% 30.30 in 10.0 mi Calm Calm - N/A   Partly Cloudy
11:56 PM 37.9 °F 34.4 °F 28.9 °F 70% 30.26 in 10.0 mi ESE 4.6 mph - N/A   Overcast